Flag for Germany Weather past 2 weeks in Kempten, Bavaria, Germany

Now
61 °F

Overcast.


Feels Like: 61 °F
Forecast: 51 / 74 °F
Wind: 1 mph from Southeast

Location: Kempten

Current Time: May 4, 2015 at 11:11:29 PM

Latest Report: May 4, 2015 at 10:00 PM


Visibility: 44 mi

Pressure: 29.78 "Hg

Humidity: 86%

Dew point: 57 °F

Location of KemptenLocation

Historic Weather in Kempten — Graph

°F

Kempten temperature yesterday

Maximum temperature yesterday: 62 °F (at 8:00 PM)
Minimum temperature yesterday: 48 °F (at 3:00 AM)
Average temperature yesterday: 55 °F

Past Weeks' High & Low Weather Summary

 TemperatureHumidityPressure
High68 °F (Apr 22, 3:00 PM)99% (Apr 29, 6:00 AM)30.44 "Hg (Apr 29, 6:00 AM)
Low29 °F (Apr 24, 7:00 AM)18% (Apr 22, 4:00 PM)29.41 "Hg (Apr 27, 6:00 PM)
Average51 °F72%29.96 "Hg
* Reported Apr 19 10:00 PM — May 4 10:00 PM, Kempten, Weather by CustomWeather, © 2015

Note: Actual official high and low records may vary slightly from our data, if they occured in-between our weather recording intervals... More about our weather records

Advertising

Kempten weather history for previous 24 hours

 ConditionsComfort  
Time TempWeatherWind HumidityBarometerVisibility
10:00 PM
Mon, May 4
61 °FOvercast.1 mph86%29.78 "Hg43 mi
9:00 PM62 °FOvercast.1 mph81%29.78 "Hg43 mi
8:00 PM64 °FOvercast.2 mph76%29.78 "Hg43 mi
7:00 PM65 °FOvercast.2 mph72%29.80 "Hg43 mi
6:00 PM67 °FOvercast.2 mph67%29.80 "Hg37 mi
4:00 PM65 °FOvercast.1 mph71%29.84 "Hg15 mi
3:00 PM64 °FOvercast.2 mph75%29.86 "Hg40 mi
2:00 PM64 °FLight rain. Overcast.2 mph69%29.86 "Hg19 mi
1:00 PM65 °FPassing clouds.2 mph67%29.84 "Hg37 mi
12:00 PM65 °FOvercast.3 mph60%29.85 "Hg28 mi
10:00 AM59 °FPartly sunny.2 mph85%29.88 "Hg40 mi
9:00 AM57 °FLight rain. Overcast.2 mph91%29.90 "Hg19 mi
8:00 AM55 °FOvercast.2 mph95%29.89 "Hg22 mi
7:00 AM55 °FLight rain. Overcast.2 mph97%29.89 "Hg25 mi
6:00 AM55 °FDrizzle. Overcast.5 mph95%29.89 "Hg19 mi
5:00 AM55 °FLight rain. Overcast.3 mph94%29.88 "Hg22 mi
4:00 AM56 °FLight rain. Overcast.3 mph95%29.89 "Hg6 mi
3:00 AM56 °FDrizzle. Overcast.3 mph96%29.87 "Hg25 mi
2:00 AM56 °FLight rain. Overcast.3 mph96%29.87 "Hg6 mi
1:00 AM56 °FRain. Overcast.5 mph91%29.85 "Hg1 mi
12:00 AM57 °FOvercast.1 mph90%29.81 "Hg34 mi
Weather by CustomWeather, © 2015

See weather overviewHow to use our weather pages